Regional Weather Roundup
Issued by NWS Jackson, KY

Home | Current Version | Previous Version | Graphics & Text | Print | Product List | Glossary On
Versions: 1 2 3 4 5 6 7 8 9 10 11 12 13 14 15 16 17 18 19 20 21 22 23 24 25 26 27 28 29 30 31 32 33 34 35 36 37 38 39 40 41 42 43 44 45 46 47 48 49 50
000
ASUS43 KJKL 062110
RWRJKL

EAST KENTUCKY HOURLY WEATHER ROUNDUP
NATIONAL WEATHER SERVICE JACKSON KY
400 PM EST SAT FEB 06 2016

NOTE: "FAIR" INDICATES FEW OR NO CLOUDS BELOW 12,000 FEET WITH
NO SIGNIFICANT WEATHER AND/OR OBSTRUCTIONS TO VISIBILITY.

* THESE REPORTS ARE NOT UNDER NWS QUALITY CONTROL AND MAY NOT
  REPORT WEATHER SUCH AS PRECIPITATION AND FOG.

KYZ079-080-083-085-087-088-110-112-115-119-120-062200
...EASTERN KENTUCKY...

CITY           SKY/WX    TMP DP  RH WIND       PRES   REMARKS
JACKSON        CLOUDY    47  19  33 CALM      30.25S
LONDON         CLOUDY    47  18  31 W9        30.27S
SOMERSET*      MOSUNNY   46  19  34 W6        30.29F
MONTICELLO*    MOSUNNY   49  21  33 VRB5      30.30F
WILLIAMSBURG*  CLOUDY    46  19  34 S6        30.28S
MIDDLESBORO*   CLOUDY    45  21  38 S6        30.29F
HARLAN APT*      N/A     45  18  33 E3        30.26S
HAZARD APT*    MOCLDY   N/A N/A N/A SW6       30.25F
BLACK MTN*       N/A     32  19  59 S5          N/A  WCI  27
BIG SANDY*     CLOUDY    48  20  32 W3        30.24F
MOREHEAD APT*  PTCLDY    48  21  34 W8        30.26F
$$

KYZ035-036-041-042-044-050-067-078-099-062200
...CENTRAL KENTUCKY...

CITY           SKY/WX    TMP DP  RH WIND       PRES   REMARKS
MT STERLING*   MOSUNNY   50  27  40 W7        30.26S
DANVILLE*      MOSUNNY   48  21  34 W9        30.27S
RICHMOND*      MOSUNNY   50  23  34 SW9       30.25F
LEXINGTON      CLOUDY    48  23  37 W9        30.25S
FRANKFORT      SUNNY     49  22  34 W7        30.25S
$$

KYZ091>093-OHZ055-061-077-WVZ005-015-034-035-042-062200
...SOUTHERN OHIO/WEST VIRGINIA...

CITY           SKY/WX    TMP DP  RH WIND       PRES   REMARKS
COLUMBUS       MOSUNNY   41  11  29 SW10      30.23F
DAYTON         MOSUNNY   41  19  41 W14       30.24S
WILMINGTON     SUNNY     43  21  41 W13       30.23F
HUNTINGTON       N/A     49  20  31 W6        30.24F
CHARLESTON     PTSUNNY   48  17  29 VRB6      30.24S
PINEVILLE*       N/A     46  10  23 MISG      30.28F
BECKLEY          N/A     41  14  33 W7        30.21F
$$

VAZ002-007-008-TNZ017-027-036-066-071-062200
...SOUTHWEST VIRGINIA/EAST TENNESSEE...

CITY           SKY/WX    TMP DP  RH WIND       PRES   REMARKS
BRISTOL        CLOUDY    43  15  32 SW3       30.28F
KNOXVILLE      PTSUNNY   46  17  31 N8        30.29F
OAK RIDGE      CLOUDY    47  19  33 E3        30.31F
CROSSVILLE     PTSUNNY   44  17  33 NE3       30.27S
NASHVILLE      CLOUDY    51  16  24 CALM      30.30F
$$

...KEY TO REMARKS...
VSB - VISIBILITY IN MILES
WCI - WIND CHILL INDEX
HX  - HEAT INDEX

$$



USA.gov is the U.S. government's official web portal to all federal, state and local government web resources and services.